Location: Dieppe
(49.9230°N, 1.0775°E)
Time: 07:02:37
(UTC+02:00)

ISS - Pass Details

Date: 26 May 2018
Orbit: 402 x 406 km, 51.6° (Epoch: 19 June)

Event Time Altitude Azimuth Distance (km) Brightness Sun altitude
Rises 02:44:13 0° 287° (WNW) 2,322 0.1 -18.1°
Reaches altitude 10° 02:46:23 10° 280° (W) 1,460 -1.1 -18.0°
Enters shadow 02:47:18 17° 272° (W) 1,117 -1.7 -18.0°
